This is the latest recevied weather packets stored in our database for station/object JA3VQW-13. If no packets are shown the sender has not sent any weather packets the latest 10 day(s).
| Time | Temp. | Humidity | Pressure | Rain* | Wind** | Luminosity | Snow |
|---|---|---|---|---|---|---|---|
| 1777646492 | 15° C | 48% | 997 hPa | 0 mm | - | - | - |
| 1777646177 | 15° C | 48% | 997 hPa | 0 mm | - | - | - |
| 1777645590 | 15° C | 48% | 997 hPa | 0 mm | - | - | - |
| 1777644377 | 14.44° C | 50% | 996 hPa | 0 mm | - | - | - |
| 1777643792 | 14.44° C | 52% | 996 hPa | 0 mm | - | - | - |
| 1777642891 | 13.89° C | 53% | 996 hPa | 0 mm | - | - | - |
| 1777642576 | 14.44° C | 52% | 996 hPa | 0 mm | - | - | - |
| 1777641090 | 15° C | 44% | 995 hPa | 0 mm | - | - | - |
| 1777640777 | 15° C | 44% | 995 hPa | 0 mm | - | - | - |
| 1777640191 | 15° C | 43% | 995 hPa | 0 mm | - | - | - |
| 1777638977 | 15° C | 42% | 995 hPa | 0 mm | - | - | - |
| 1777638390 | 15° C | 42% | 995 hPa | 0 mm | - | - | - |
| 1777637492 | 16.11° C | 64% | 1003 hPa | 0 mm | - | - | - |
| 1777637176 | 16.11° C | 64% | 1003 hPa | 0 mm | - | - | - |
| 1777636591 | 16.11° C | 64% | 1003 hPa | 0 mm | - | - | - |
| 1777635691 | 16.11° C | 64% | 1003 hPa | 0 mm | - | - | - |
| 1777635376 | 16.11° C | 64% | 1003 hPa | 0 mm | - | - | - |
| 1777634791 | 16.11° C | 64% | 1003 hPa | 0 mm | - | - | - |
| 1777633890 | 16.11° C | 64% | 1003 hPa | 0 mm | - | - | - |
| 1777633576 | 16.11° C | 64% | 1003 hPa | 0 mm | - | - | - |
| 1777632991 | 16.11° C | 64% | 1003 hPa | 0 mm | - | - | - |
| 1777632091 | 16.11° C | 64% | 1003 hPa | 0 mm | - | - | - |
| 1777631775 | 16.11° C | 64% | 1003 hPa | 0 mm | - | - | - |
| 1777631190 | 16.11° C | 64% | 1003 hPa | 0 mm | - | - | - |
| 1777630290 | 16.11° C | 64% | 1003 hPa | 0 mm | - | - | - |
* Rain latest hour (hover to see other rain measurements)
** Current wind speed in m/s (hover to see current wind gust speed)